Location: Écuvilly
(49.6505°N, 2.9206°E)
Time: 18:08:49
(UTC+00:00)

COSMOS 2406 - Pass Details

Date: 17 November 2025
Orbit: 845 x 859 km, 71.0° (Epoch: 09 December)

Event Time Altitude Azimuth Distance (km) Brightness Sun altitude
Rises 16:33:40 0° 334° (NNW) 3,417 6.4 -5.3°
Reaches altitude 10° 16:36:44 10° 350° (N) 2,480 5.5 -5.8°
Maximum altitude 16:41:02 22° 39° (NE) 1,800 4.4 -6.4°
Drops below altitude 10° 16:45:19 10° 88° (E) 2,476 5.0 -7.1°
Enters shadow 16:47:01 - 98° (E) 2,972 5.5 -7.3°
